Location: Songkhla
(7.2000°N, 100.6000°E)
Time: 05:20:17
(UTC+07:00)

XW-2D - Pass Details

Date: 03 August 2021
Orbit: 505 x 522 km, 97.5° (Epoch: 17 September)

Event Time Altitude Azimuth Distance (km) Brightness Sun altitude
Rises 05:24:06 0° 29° (NNE) 2,633 ? -11.9°
Reaches altitude 10° 05:26:25 10° 42° (NE) 1,749 ? -11.4°
Maximum altitude 05:29:39 27° 101° (E) 1,027 ? -10.6°
Drops below altitude 10° 05:32:52 10° 159° (SSE) 1,755 ? -9.8°
Sets 05:35:12 0° 172° (S) 2,645 ? -9.3°
